Year,Month,Day,Hour,Minute,Value (Times are PST for temperature in C)
2013,07,16,00,00,14.80
2013,07,16,00,01,14.80
2013,07,16,00,02,14.80
2013,07,16,00,03,14.80
2013,07,16,00,04,14.80
2013,07,16,00,05,14.80
2013,07,16,00,06,14.80
2013,07,16,00,07,14.80
2013,07,16,00,08,14.80
2013,07,16,00,09,14.80
2013,07,16,00,10,14.80
2013,07,16,00,11,14.70
2013,07,16,00,12,14.70
2013,07,16,00,13,14.70
2013,07,16,00,14,14.60
2013,07,16,00,15,14.60
2013,07,16,00,16,14.60
2013,07,16,00,17,14.50
2013,07,16,00,18,14.50
2013,07,16,00,19,14.50
2013,07,16,00,20,14.50
2013,07,16,00,21,14.50
2013,07,16,00,22,14.50
2013,07,16,00,23,14.50
2013,07,16,00,24,14.60
2013,07,16,00,25,14.60
2013,07,16,00,26,14.60
2013,07,16,00,27,14.60
2013,07,16,00,28,14.60
2013,07,16,00,29,14.60
2013,07,16,00,30,14.60
2013,07,16,00,31,14.60
2013,07,16,00,32,14.60
2013,07,16,00,33,14.60
2013,07,16,00,34,14.70
2013,07,16,00,35,14.70
2013,07,16,00,36,14.70
2013,07,16,00,37,14.80
2013,07,16,00,38,14.80
2013,07,16,00,39,14.80
2013,07,16,00,40,14.90
2013,07,16,00,41,15.00
2013,07,16,00,42,15.00
2013,07,16,00,43,15.10
2013,07,16,00,44,15.10
2013,07,16,00,45,15.20
2013,07,16,00,46,15.20
2013,07,16,00,47,15.20
2013,07,16,00,48,15.20
2013,07,16,00,49,15.20
2013,07,16,00,50,15.20
2013,07,16,00,51,15.20
2013,07,16,00,52,15.20
2013,07,16,00,53,15.20
2013,07,16,00,54,15.20
2013,07,16,00,55,15.20
2013,07,16,00,56,15.20
2013,07,16,00,57,15.30
2013,07,16,00,58,15.30
2013,07,16,00,59,15.30
2013,07,16,01,00,15.30
2013,07,16,01,01,15.30
2013,07,16,01,02,15.30
2013,07,16,01,03,15.30
2013,07,16,01,04,15.30
2013,07,16,01,05,15.30
2013,07,16,01,06,15.30
2013,07,16,01,07,15.40
2013,07,16,01,08,15.40
2013,07,16,01,09,15.50
2013,07,16,01,10,15.50
2013,07,16,01,11,15.60
2013,07,16,01,12,15.60
2013,07,16,01,13,15.60
2013,07,16,01,14,15.60
2013,07,16,01,15,15.60
2013,07,16,01,16,15.60
2013,07,16,01,17,15.70
2013,07,16,01,18,15.70
2013,07,16,01,19,15.70
2013,07,16,01,20,15.70
2013,07,16,01,21,15.70
2013,07,16,01,22,15.70
2013,07,16,01,23,15.70
2013,07,16,01,24,15.70
2013,07,16,01,25,15.70
2013,07,16,01,26,15.60
2013,07,16,01,27,15.60
2013,07,16,01,28,15.60
2013,07,16,01,29,15.60
2013,07,16,01,30,15.50
2013,07,16,01,31,15.50
2013,07,16,01,32,15.40
2013,07,16,01,33,15.40
2013,07,16,01,34,15.40
2013,07,16,01,35,15.40
2013,07,16,01,36,15.40
2013,07,16,01,37,15.40
2013,07,16,01,38,15.40
2013,07,16,01,39,15.40
2013,07,16,01,40,15.40
2013,07,16,01,41,15.30
2013,07,16,01,42,15.30
2013,07,16,01,43,15.30
2013,07,16,01,44,15.30
2013,07,16,01,45,15.20
2013,07,16,01,46,15.20
2013,07,16,01,47,15.10
2013,07,16,01,48,15.10
2013,07,16,01,49,15.00
2013,07,16,01,50,15.00
2013,07,16,01,51,14.90
2013,07,16,01,52,14.90
2013,07,16,01,53,14.80
2013,07,16,01,54,14.80
2013,07,16,01,55,14.80
2013,07,16,01,56,14.80
2013,07,16,01,57,14.80
2013,07,16,01,58,14.80
2013,07,16,01,59,14.70
2013,07,16,02,00,14.70
2013,07,16,02,01,14.70
2013,07,16,02,02,14.70
2013,07,16,02,03,14.60
2013,07,16,02,04,14.60
2013,07,16,02,05,14.60
2013,07,16,02,06,14.50
2013,07,16,02,07,14.50
2013,07,16,02,08,14.50
2013,07,16,02,09,14.40
2013,07,16,02,10,14.40
2013,07,16,02,11,14.40
2013,07,16,02,12,14.30
2013,07,16,02,13,14.30
2013,07,16,02,14,14.30
2013,07,16,02,15,14.20
2013,07,16,02,16,14.20
2013,07,16,02,17,14.20
2013,07,16,02,18,14.20
2013,07,16,02,19,14.20
2013,07,16,02,20,14.20
2013,07,16,02,21,14.10
2013,07,16,02,22,14.10
2013,07,16,02,23,14.10
2013,07,16,02,24,14.10
2013,07,16,02,25,14.10
2013,07,16,02,26,14.10
2013,07,16,02,27,14.10
2013,07,16,02,28,14.20
2013,07,16,02,29,14.20
2013,07,16,02,30,14.20
2013,07,16,02,31,14.20
2013,07,16,02,32,14.20
2013,07,16,02,33,14.20
2013,07,16,02,34,14.20
2013,07,16,02,35,14.20
2013,07,16,02,36,14.20
2013,07,16,02,37,14.20
2013,07,16,02,38,14.20
2013,07,16,02,39,14.20
2013,07,16,02,40,14.20
2013,07,16,02,41,14.20
2013,07,16,02,42,14.30
2013,07,16,02,43,14.30
2013,07,16,02,44,14.30
2013,07,16,02,45,14.30
2013,07,16,02,46,14.30
2013,07,16,02,47,14.20
2013,07,16,02,48,14.20
2013,07,16,02,49,14.20
2013,07,16,02,50,14.20
2013,07,16,02,51,14.20
2013,07,16,02,52,14.20
2013,07,16,02,53,14.10
2013,07,16,02,54,14.10
2013,07,16,02,55,14.10
2013,07,16,02,56,14.10
2013,07,16,02,57,14.10
2013,07,16,02,58,14.10
2013,07,16,02,59,14.10
2013,07,16,03,00,14.10
2013,07,16,03,01,14.20
2013,07,16,03,02,14.20
2013,07,16,03,03,14.20
2013,07,16,03,04,14.20
2013,07,16,03,05,14.30
2013,07,16,03,06,14.30
2013,07,16,03,07,14.30
2013,07,16,03,08,14.30
2013,07,16,03,09,14.30
2013,07,16,03,10,14.30
2013,07,16,03,11,14.20
2013,07,16,03,12,14.20
2013,07,16,03,13,14.20
2013,07,16,03,14,14.20
2013,07,16,03,15,14.20
2013,07,16,03,16,14.10
2013,07,16,03,17,14.10
2013,07,16,03,18,14.00
2013,07,16,03,19,14.00
2013,07,16,03,20,14.00
2013,07,16,03,21,14.00
2013,07,16,03,22,14.00
2013,07,16,03,23,14.00
2013,07,16,03,24,13.90
2013,07,16,03,25,13.90
2013,07,16,03,26,13.90
2013,07,16,03,27,13.90
2013,07,16,03,28,13.90
2013,07,16,03,29,13.90
2013,07,16,03,30,13.80
2013,07,16,03,31,13.80
2013,07,16,03,32,13.80
2013,07,16,03,33,13.80
2013,07,16,03,34,13.80
2013,07,16,03,35,13.70
2013,07,16,03,36,13.70
2013,07,16,03,37,13.70
2013,07,16,03,38,13.70
2013,07,16,03,39,13.70
2013,07,16,03,40,13.60
2013,07,16,03,41,13.60
2013,07,16,03,42,13.60
2013,07,16,03,43,13.60
2013,07,16,03,44,13.50
2013,07,16,03,45,13.50
2013,07,16,03,46,13.50
2013,07,16,03,47,13.40
2013,07,16,03,48,13.40
2013,07,16,03,49,13.30
2013,07,16,03,50,13.30
2013,07,16,03,51,13.30
2013,07,16,03,52,13.30
2013,07,16,03,53,13.30
2013,07,16,03,54,13.30
2013,07,16,03,55,13.20
2013,07,16,03,56,13.20
2013,07,16,03,57,13.20
2013,07,16,03,58,13.20
2013,07,16,03,59,13.20
2013,07,16,04,00,13.20
2013,07,16,04,01,13.10
2013,07,16,04,02,13.10
2013,07,16,04,03,13.10
2013,07,16,04,04,13.10
2013,07,16,04,05,13.10
2013,07,16,04,06,13.10
2013,07,16,04,07,13.00
2013,07,16,04,08,13.00
2013,07,16,04,09,13.00
2013,07,16,04,10,12.90
2013,07,16,04,11,12.90
2013,07,16,04,12,13.00
2013,07,16,04,13,13.10
2013,07,16,04,14,13.10
2013,07,16,04,15,13.20
2013,07,16,04,16,13.20
2013,07,16,04,17,13.20
2013,07,16,04,18,13.20
2013,07,16,04,19,13.20
2013,07,16,04,20,13.20
2013,07,16,04,21,13.20
2013,07,16,04,22,13.20
2013,07,16,04,23,13.20
2013,07,16,04,24,13.20
2013,07,16,04,25,13.20
2013,07,16,04,26,13.20
2013,07,16,04,27,13.20
2013,07,16,04,28,13.20
2013,07,16,04,29,13.20
2013,07,16,04,30,13.20
2013,07,16,04,31,13.20
2013,07,16,04,32,13.20
2013,07,16,04,33,13.10
2013,07,16,04,34,13.10
2013,07,16,04,35,13.10
2013,07,16,04,36,13.10
2013,07,16,04,37,13.10
2013,07,16,04,38,13.10
2013,07,16,04,39,13.10
2013,07,16,04,40,13.10
2013,07,16,04,41,13.00
2013,07,16,04,42,13.00
2013,07,16,04,43,13.00
2013,07,16,04,44,13.00
2013,07,16,04,45,13.00
2013,07,16,04,46,13.00
2013,07,16,04,47,13.10
2013,07,16,04,48,13.10
2013,07,16,04,49,13.20
2013,07,16,04,50,13.20
2013,07,16,04,51,13.30
2013,07,16,04,52,13.30
2013,07,16,04,53,13.40
2013,07,16,04,54,13.40
2013,07,16,04,55,13.40
2013,07,16,04,56,13.50
2013,07,16,04,57,13.50
2013,07,16,04,58,13.50
2013,07,16,04,59,13.50
2013,07,16,05,00,13.50
2013,07,16,05,01,13.50
2013,07,16,05,02,13.50
2013,07,16,05,03,13.50
2013,07,16,05,04,13.50
2013,07,16,05,05,13.50
2013,07,16,05,06,13.40
2013,07,16,05,07,13.40
2013,07,16,05,08,13.40
2013,07,16,05,09,13.40
2013,07,16,05,10,13.30
2013,07,16,05,11,13.30
2013,07,16,05,12,13.30
2013,07,16,05,13,13.30
2013,07,16,05,14,13.30
2013,07,16,05,15,13.30
2013,07,16,05,16,13.30
2013,07,16,05,17,13.30
2013,07,16,05,18,13.30
2013,07,16,05,19,13.30
2013,07,16,05,20,13.20
2013,07,16,05,21,13.20
2013,07,16,05,22,13.20
2013,07,16,05,23,13.20
2013,07,16,05,24,13.20
2013,07,16,05,25,13.20
2013,07,16,05,26,13.20
2013,07,16,05,27,13.20
2013,07,16,05,28,13.20
2013,07,16,05,29,13.10
2013,07,16,05,30,13.10
2013,07,16,05,31,13.10
2013,07,16,05,32,13.10
2013,07,16,05,33,13.10
2013,07,16,05,34,13.00
2013,07,16,05,35,13.00
2013,07,16,05,36,13.00
2013,07,16,05,37,13.00
2013,07,16,05,38,13.00
2013,07,16,05,39,13.00
2013,07,16,05,40,13.00
2013,07,16,05,41,13.00
2013,07,16,05,42,13.00
2013,07,16,05,43,13.00
2013,07,16,05,44,13.00
2013,07,16,05,45,13.00
2013,07,16,05,46,13.00
2013,07,16,05,47,13.00
2013,07,16,05,48,13.00
2013,07,16,05,49,13.00
2013,07,16,05,50,13.00
2013,07,16,05,51,13.00
2013,07,16,05,52,13.00
2013,07,16,05,53,13.00
2013,07,16,05,54,13.00
2013,07,16,05,55,13.00
2013,07,16,05,56,12.90
2013,07,16,05,57,12.90
2013,07,16,05,58,12.90
2013,07,16,05,59,12.90
2013,07,16,06,00,12.90
2013,07,16,06,01,12.90
2013,07,16,06,02,12.90
2013,07,16,06,03,12.90
2013,07,16,06,04,12.90
2013,07,16,06,05,12.90
2013,07,16,06,06,12.90
2013,07,16,06,07,12.90
2013,07,16,06,08,12.90
2013,07,16,06,09,12.90
2013,07,16,06,10,13.00
2013,07,16,06,11,13.00
2013,07,16,06,12,13.00
2013,07,16,06,13,13.10
2013,07,16,06,14,13.10
2013,07,16,06,15,13.10
2013,07,16,06,16,13.10
2013,07,16,06,17,13.10
2013,07,16,06,18,13.20
2013,07,16,06,19,13.20
2013,07,16,06,20,13.20
2013,07,16,06,21,13.20
2013,07,16,06,22,13.30
2013,07,16,06,23,13.30
2013,07,16,06,24,13.30
2013,07,16,06,25,13.30
2013,07,16,06,26,13.30
2013,07,16,06,27,13.30
2013,07,16,06,28,13.40
2013,07,16,06,29,13.40
2013,07,16,06,30,13.50
2013,07,16,06,31,13.50
2013,07,16,06,32,13.50
2013,07,16,06,33,13.60
2013,07,16,06,34,13.70
2013,07,16,06,35,13.70
2013,07,16,06,36,13.70
2013,07,16,06,37,13.80
2013,07,16,06,38,13.90
2013,07,16,06,39,13.90
2013,07,16,06,40,14.00
2013,07,16,06,41,14.00
2013,07,16,06,42,14.10
2013,07,16,06,43,14.10
2013,07,16,06,44,14.20
2013,07,16,06,45,14.20
2013,07,16,06,46,14.20
2013,07,16,06,47,14.20
2013,07,16,06,48,14.20
2013,07,16,06,49,14.30
2013,07,16,06,50,14.40
2013,07,16,06,51,14.40
2013,07,16,06,52,14.40
2013,07,16,06,53,14.40
2013,07,16,06,54,14.50
2013,07,16,06,55,14.50
2013,07,16,06,56,14.50
2013,07,16,06,57,14.50
2013,07,16,06,58,14.60
2013,07,16,06,59,14.60
2013,07,16,07,00,14.70
2013,07,16,07,01,14.80
2013,07,16,07,02,14.90
2013,07,16,07,03,14.90
2013,07,16,07,04,15.00
2013,07,16,07,05,15.10
2013,07,16,07,06,15.30
2013,07,16,07,07,15.40
2013,07,16,07,08,15.50
2013,07,16,07,09,15.60
2013,07,16,07,10,15.80
2013,07,16,07,11,15.90
2013,07,16,07,12,16.00
2013,07,16,07,13,16.10
2013,07,16,07,14,16.20
2013,07,16,07,15,16.20
2013,07,16,07,16,16.30
2013,07,16,07,17,16.40
2013,07,16,07,18,16.40
2013,07,16,07,19,16.40
2013,07,16,07,20,16.50
2013,07,16,07,21,16.60
2013,07,16,07,22,16.60
2013,07,16,07,23,16.60
2013,07,16,07,24,16.60
2013,07,16,07,25,16.70
2013,07,16,07,26,16.60
2013,07,16,07,27,16.50
2013,07,16,07,28,16.40
2013,07,16,07,29,16.30
2013,07,16,07,30,16.30
2013,07,16,07,31,16.30
2013,07,16,07,32,16.30
2013,07,16,07,33,16.30
2013,07,16,07,34,16.30
2013,07,16,07,35,16.30
2013,07,16,07,36,16.30
2013,07,16,07,37,16.30
2013,07,16,07,38,16.30
2013,07,16,07,39,16.30
2013,07,16,07,40,16.30
2013,07,16,07,41,16.40
2013,07,16,07,42,16.40
2013,07,16,07,43,16.40
2013,07,16,07,44,16.50
2013,07,16,07,45,16.60
2013,07,16,07,46,16.60
2013,07,16,07,47,16.70
2013,07,16,07,48,16.70
2013,07,16,07,49,16.70
2013,07,16,07,50,16.70
2013,07,16,07,51,16.70
2013,07,16,07,52,16.70
2013,07,16,07,53,16.70
2013,07,16,07,54,16.70
2013,07,16,07,55,16.70
2013,07,16,07,56,16.80
2013,07,16,07,57,16.80
2013,07,16,07,58,16.90
2013,07,16,07,59,16.90
2013,07,16,08,00,17.00
2013,07,16,08,01,17.00
2013,07,16,08,02,17.10
2013,07,16,08,03,17.20
2013,07,16,08,04,17.30
2013,07,16,08,05,17.30
2013,07,16,08,06,17.30
2013,07,16,08,07,17.30
2013,07,16,08,08,17.30
2013,07,16,08,09,17.30
2013,07,16,08,10,17.30
2013,07,16,08,11,17.30
2013,07,16,08,12,17.30
2013,07,16,08,13,17.30
2013,07,16,08,14,17.30
2013,07,16,08,15,17.30
2013,07,16,08,16,17.20
2013,07,16,08,17,17.10
2013,07,16,08,18,17.10
2013,07,16,08,19,17.10
2013,07,16,08,20,17.10
2013,07,16,08,21,17.10
2013,07,16,08,22,17.10
2013,07,16,08,23,17.20
2013,07,16,08,24,17.20
2013,07,16,08,25,17.30
2013,07,16,08,26,17.30
2013,07,16,08,27,17.30
2013,07,16,08,28,17.30
2013,07,16,08,29,17.30
2013,07,16,08,30,17.40
2013,07,16,08,31,17.40
2013,07,16,08,32,17.40
2013,07,16,08,33,17.40
2013,07,16,08,34,17.40
2013,07,16,08,35,17.40
2013,07,16,08,36,17.40
2013,07,16,08,37,17.40
2013,07,16,08,38,17.40
2013,07,16,08,39,17.40
2013,07,16,08,40,17.40
2013,07,16,08,41,17.40
2013,07,16,08,42,17.40
2013,07,16,08,43,17.30
2013,07,16,08,44,17.20
2013,07,16,08,45,17.20
2013,07,16,08,46,17.20
2013,07,16,08,47,17.10
2013,07,16,08,48,17.10
2013,07,16,08,49,17.10
2013,07,16,08,50,17.00
2013,07,16,08,51,16.90
2013,07,16,08,52,16.80
2013,07,16,08,53,16.80
2013,07,16,08,54,16.90
2013,07,16,08,55,16.90
2013,07,16,08,56,16.90
2013,07,16,08,57,17.00
2013,07,16,08,58,17.00
2013,07,16,08,59,17.10
2013,07,16,09,00,17.20
2013,07,16,09,01,17.30
2013,07,16,09,02,17.40
2013,07,16,09,03,17.40
2013,07,16,09,04,17.50
2013,07,16,09,05,17.50
2013,07,16,09,06,17.60
2013,07,16,09,07,17.60
2013,07,16,09,08,17.70
2013,07,16,09,09,17.70
2013,07,16,09,10,17.80
2013,07,16,09,11,17.90
2013,07,16,09,12,18.00
2013,07,16,09,13,18.30
2013,07,16,09,14,18.70
2013,07,16,09,15,18.90
2013,07,16,09,16,19.00
2013,07,16,09,17,19.10
2013,07,16,09,18,19.20
2013,07,16,09,19,19.20
2013,07,16,09,20,19.20
2013,07,16,09,21,19.30
2013,07,16,09,22,19.50
2013,07,16,09,23,19.70
2013,07,16,09,24,19.70
2013,07,16,09,25,19.70
2013,07,16,09,26,20.00
2013,07,16,09,27,20.30
2013,07,16,09,28,20.60
2013,07,16,09,29,20.90
2013,07,16,09,30,21.30
2013,07,16,09,31,21.60
2013,07,16,09,32,21.90
2013,07,16,09,33,22.30
2013,07,16,09,34,22.60
2013,07,16,09,35,22.90
2013,07,16,09,36,23.10
2013,07,16,09,37,23.30
2013,07,16,09,38,23.40
2013,07,16,09,39,23.60
2013,07,16,09,40,23.70
2013,07,16,09,41,23.80
2013,07,16,09,42,23.90
2013,07,16,09,43,24.00
2013,07,16,09,44,24.10
2013,07,16,09,45,24.10
2013,07,16,09,46,24.20
2013,07,16,09,47,24.30
2013,07,16,09,48,24.30
2013,07,16,09,49,24.40
2013,07,16,09,50,24.40
2013,07,16,09,51,24.40
2013,07,16,09,52,24.40
2013,07,16,09,53,24.40
2013,07,16,09,54,24.40
2013,07,16,09,55,24.40
2013,07,16,09,56,24.40
2013,07,16,09,57,24.40
2013,07,16,09,58,24.50
2013,07,16,09,59,24.50
2013,07,16,10,00,24.50
2013,07,16,10,01,24.50
2013,07,16,10,02,24.50
2013,07,16,10,03,24.50
2013,07,16,10,04,24.50
2013,07,16,10,05,24.60
2013,07,16,10,06,24.60
2013,07,16,10,07,24.60
2013,07,16,10,08,24.60
2013,07,16,10,09,24.60
2013,07,16,10,10,24.60
2013,07,16,10,11,24.70
2013,07,16,10,12,24.70
2013,07,16,10,13,24.70
2013,07,16,10,14,24.70
2013,07,16,10,15,24.80
2013,07,16,10,16,24.80
2013,07,16,10,17,24.90
2013,07,16,10,18,24.90
2013,07,16,10,19,25.00
2013,07,16,10,20,25.00
2013,07,16,10,21,25.00
2013,07,16,10,22,25.10
2013,07,16,10,23,25.20
2013,07,16,10,24,25.20
2013,07,16,10,25,25.20
2013,07,16,10,26,25.20
2013,07,16,10,27,25.20
2013,07,16,10,28,25.20
2013,07,16,10,29,25.30
2013,07,16,10,30,25.40
2013,07,16,10,31,25.40
2013,07,16,10,32,25.40
2013,07,16,10,33,25.50
2013,07,16,10,34,25.50
2013,07,16,10,35,25.60
2013,07,16,10,36,25.60
2013,07,16,10,37,25.70
2013,07,16,10,38,25.80
2013,07,16,10,39,25.90
2013,07,16,10,40,25.90
2013,07,16,10,41,25.80
2013,07,16,10,42,25.90
2013,07,16,10,43,25.90
2013,07,16,10,44,25.80
2013,07,16,10,45,25.80
2013,07,16,10,46,25.80
2013,07,16,10,47,25.90
2013,07,16,10,48,25.90
2013,07,16,10,49,25.80
2013,07,16,10,50,25.80
2013,07,16,10,51,25.80
2013,07,16,10,52,25.80
2013,07,16,10,53,25.80
2013,07,16,10,54,25.80
2013,07,16,10,55,25.90
2013,07,16,10,56,25.90
2013,07,16,10,57,25.90
2013,07,16,10,58,25.90
2013,07,16,10,59,25.90
2013,07,16,11,00,25.90
2013,07,16,11,01,25.90
2013,07,16,11,02,25.90
2013,07,16,11,03,25.90
2013,07,16,11,04,25.80
2013,07,16,11,05,25.70
2013,07,16,11,06,25.70
2013,07,16,11,07,25.70
2013,07,16,11,08,25.70
2013,07,16,11,09,25.70
2013,07,16,11,10,25.70
2013,07,16,11,11,25.80
2013,07,16,11,12,25.90
2013,07,16,11,13,26.00
2013,07,16,11,14,26.10
2013,07,16,11,15,26.20
2013,07,16,11,16,26.30
2013,07,16,11,17,26.40
2013,07,16,11,18,26.50
2013,07,16,11,19,26.60
2013,07,16,11,20,26.70
2013,07,16,11,21,26.70
2013,07,16,11,22,26.80
2013,07,16,11,23,26.80
2013,07,16,11,24,26.80
2013,07,16,11,25,26.80
2013,07,16,11,26,26.90
2013,07,16,11,27,26.90
2013,07,16,11,28,26.90
2013,07,16,11,29,27.00
2013,07,16,11,30,27.10
2013,07,16,11,31,27.10
2013,07,16,11,32,27.20
2013,07,16,11,33,27.20
2013,07,16,11,34,27.20
2013,07,16,11,35,27.20
2013,07,16,11,36,27.10
2013,07,16,11,37,27.00
2013,07,16,11,38,26.90
2013,07,16,11,39,26.80
2013,07,16,11,40,26.80
2013,07,16,11,41,26.80
2013,07,16,11,42,26.80
2013,07,16,11,43,26.90
2013,07,16,11,44,27.10
2013,07,16,11,45,27.20
2013,07,16,11,46,27.30
2013,07,16,11,47,27.30
2013,07,16,11,48,27.30
2013,07,16,11,49,27.20
2013,07,16,11,50,27.20
2013,07,16,11,51,27.20
2013,07,16,11,52,27.20
2013,07,16,11,53,27.10
2013,07,16,11,54,27.10
2013,07,16,11,55,27.00
2013,07,16,11,56,27.00
2013,07,16,11,57,27.10
2013,07,16,11,58,27.10
2013,07,16,11,59,27.20
2013,07,16,12,00,27.20
2013,07,16,12,01,27.20
2013,07,16,12,02,27.20
2013,07,16,12,03,27.20
2013,07,16,12,04,27.20
2013,07,16,12,05,27.20
2013,07,16,12,06,27.20
2013,07,16,12,07,27.30
2013,07,16,12,08,27.30
2013,07,16,12,09,27.30
2013,07,16,12,10,27.30
2013,07,16,12,11,27.30
2013,07,16,12,12,27.30
2013,07,16,12,13,27.30
2013,07,16,12,14,27.40
2013,07,16,12,15,27.50
2013,07,16,12,16,27.60
2013,07,16,12,17,27.70
2013,07,16,12,18,27.70
2013,07,16,12,19,27.90
2013,07,16,12,20,28.00
2013,07,16,12,21,28.10
2013,07,16,12,22,28.10
2013,07,16,12,23,28.10
2013,07,16,12,24,28.10
2013,07,16,12,25,28.00
2013,07,16,12,26,28.10
2013,07,16,12,27,28.10
2013,07,16,12,28,28.10
2013,07,16,12,29,28.20
2013,07,16,12,30,27.90
2013,07,16,12,31,27.40
2013,07,16,12,32,27.00
2013,07,16,12,33,26.50
2013,07,16,12,34,25.70
2013,07,16,12,35,24.80
2013,07,16,12,36,24.00
2013,07,16,12,37,23.30
2013,07,16,12,38,22.80
2013,07,16,12,39,22.20
2013,07,16,12,40,21.90
2013,07,16,12,41,21.60
2013,07,16,12,42,21.30
2013,07,16,12,43,21.20
2013,07,16,12,44,21.00
2013,07,16,12,45,20.80
2013,07,16,12,46,20.70
2013,07,16,12,47,20.50
2013,07,16,12,48,20.50
2013,07,16,12,49,20.40
2013,07,16,12,50,20.30
2013,07,16,12,51,20.10
2013,07,16,12,52,20.00
2013,07,16,12,53,19.90
2013,07,16,12,54,19.90
2013,07,16,12,55,20.00
2013,07,16,12,56,20.10
2013,07,16,12,57,20.10
2013,07,16,12,58,20.10
2013,07,16,12,59,20.20
2013,07,16,13,00,20.10
2013,07,16,13,01,20.10
2013,07,16,13,02,20.10
2013,07,16,13,03,19.90
2013,07,16,13,04,19.80
2013,07,16,13,05,19.60
2013,07,16,13,06,19.50
2013,07,16,13,07,19.50
2013,07,16,13,08,19.50
2013,07,16,13,09,19.60
2013,07,16,13,10,19.60
2013,07,16,13,11,19.70
2013,07,16,13,12,19.90
2013,07,16,13,13,19.90
2013,07,16,13,14,20.00
2013,07,16,13,15,20.10
2013,07,16,13,16,20.30
2013,07,16,13,17,20.40
2013,07,16,13,18,20.70
2013,07,16,13,19,21.00
2013,07,16,13,20,21.30
2013,07,16,13,21,21.70
2013,07,16,13,22,22.00
2013,07,16,13,23,22.20
2013,07,16,13,24,22.50
2013,07,16,13,25,22.70
2013,07,16,13,26,22.80
2013,07,16,13,27,22.90
2013,07,16,13,28,23.00
2013,07,16,13,29,23.10
2013,07,16,13,30,23.00
2013,07,16,13,31,22.90
2013,07,16,13,32,22.90
2013,07,16,13,33,22.90
2013,07,16,13,34,23.00
2013,07,16,13,35,23.10
2013,07,16,13,36,23.20
2013,07,16,13,37,23.40
2013,07,16,13,38,23.60
2013,07,16,13,39,23.50
2013,07,16,13,40,23.00
2013,07,16,13,41,22.30
2013,07,16,13,42,21.50
2013,07,16,13,43,20.90
2013,07,16,13,44,20.40
2013,07,16,13,45,20.00
2013,07,16,13,46,19.60
2013,07,16,13,47,19.20
2013,07,16,13,48,19.00
2013,07,16,13,49,18.90
2013,07,16,13,50,18.90
2013,07,16,13,51,18.80
2013,07,16,13,52,18.80
2013,07,16,13,53,18.80
2013,07,16,13,54,18.80
2013,07,16,13,55,18.90
2013,07,16,13,56,18.90
2013,07,16,13,57,19.00
2013,07,16,13,58,19.10
2013,07,16,13,59,19.10
2013,07,16,14,00,19.20
2013,07,16,14,01,19.30
2013,07,16,14,02,19.50
2013,07,16,14,03,19.70
2013,07,16,14,04,20.00
2013,07,16,14,05,20.20
2013,07,16,14,06,20.40
2013,07,16,14,07,20.50
2013,07,16,14,08,20.60
2013,07,16,14,09,20.60
2013,07,16,14,10,20.60
2013,07,16,14,11,20.60
2013,07,16,14,12,20.60
2013,07,16,14,13,20.60
2013,07,16,14,14,20.50
2013,07,16,14,15,20.30
2013,07,16,14,16,20.20
2013,07,16,14,17,20.00
2013,07,16,14,18,19.80
2013,07,16,14,19,19.70
2013,07,16,14,20,19.60
2013,07,16,14,21,19.60
2013,07,16,14,22,19.60
2013,07,16,14,23,19.40
2013,07,16,14,24,19.30
2013,07,16,14,25,19.20
2013,07,16,14,26,19.10
2013,07,16,14,27,19.10
2013,07,16,14,28,19.10
2013,07,16,14,29,19.00
2013,07,16,14,30,18.90
2013,07,16,14,31,18.90
2013,07,16,14,32,18.90
2013,07,16,14,33,18.90
2013,07,16,14,34,18.90
2013,07,16,14,35,19.00
2013,07,16,14,36,19.10
2013,07,16,14,37,19.10
2013,07,16,14,38,19.10
2013,07,16,14,39,19.10
2013,07,16,14,40,19.10
2013,07,16,14,41,19.10
2013,07,16,14,42,18.90
2013,07,16,14,43,18.90
2013,07,16,14,44,18.90
2013,07,16,14,45,18.90
2013,07,16,14,46,18.90
2013,07,16,14,47,18.90
2013,07,16,14,48,18.90
2013,07,16,14,49,18.90
2013,07,16,14,50,18.90
2013,07,16,14,51,18.90
2013,07,16,14,52,18.90
2013,07,16,14,53,18.90
2013,07,16,14,54,18.90
2013,07,16,14,55,18.90
2013,07,16,14,56,18.90
2013,07,16,14,57,18.90
2013,07,16,14,58,18.90
2013,07,16,14,59,19.10
2013,07,16,15,00,19.10
2013,07,16,15,01,19.10
2013,07,16,15,02,19.10
2013,07,16,15,03,19.20
2013,07,16,15,04,19.30
2013,07,16,15,05,19.50
2013,07,16,15,06,19.60
2013,07,16,15,07,19.70
2013,07,16,15,08,19.80
2013,07,16,15,09,19.90
2013,07,16,15,10,19.90
2013,07,16,15,11,20.00
2013,07,16,15,12,20.10
2013,07,16,15,13,20.20
2013,07,16,15,14,20.20
2013,07,16,15,15,20.20
2013,07,16,15,16,20.30
2013,07,16,15,17,20.50
2013,07,16,15,18,20.50
2013,07,16,15,19,20.70
2013,07,16,15,20,20.80
2013,07,16,15,21,21.00
2013,07,16,15,22,21.00
2013,07,16,15,23,20.90
2013,07,16,15,24,20.90
2013,07,16,15,25,20.80
2013,07,16,15,26,20.80
2013,07,16,15,27,20.90
2013,07,16,15,28,20.80
2013,07,16,15,29,20.80
2013,07,16,15,30,20.70
2013,07,16,15,31,20.70
2013,07,16,15,32,20.70
2013,07,16,15,33,20.80
2013,07,16,15,34,20.90
2013,07,16,15,35,21.00
2013,07,16,15,36,21.10
2013,07,16,15,37,21.30
2013,07,16,15,38,21.30
2013,07,16,15,39,21.40
2013,07,16,15,40,21.60
2013,07,16,15,41,21.70
2013,07,16,15,42,21.90
2013,07,16,15,43,22.00
2013,07,16,15,44,22.20
2013,07,16,15,45,22.30
2013,07,16,15,46,22.50
2013,07,16,15,47,22.60
2013,07,16,15,48,22.80
2013,07,16,15,49,22.90
2013,07,16,15,50,22.90
2013,07,16,15,51,22.90
2013,07,16,15,52,22.90
2013,07,16,15,53,22.90
2013,07,16,15,54,22.80
2013,07,16,15,55,22.70
2013,07,16,15,56,22.60
2013,07,16,15,57,22.40
2013,07,16,15,58,22.30
2013,07,16,15,59,22.20
2013,07,16,16,00,22.20
2013,07,16,16,01,22.20
2013,07,16,16,02,22.20
2013,07,16,16,03,22.20
2013,07,16,16,04,22.20
2013,07,16,16,05,22.20
2013,07,16,16,06,22.30
2013,07,16,16,07,22.30
2013,07,16,16,08,22.30
2013,07,16,16,09,22.30
2013,07,16,16,10,22.30
2013,07,16,16,11,22.20
2013,07,16,16,12,22.20
2013,07,16,16,13,22.20
2013,07,16,16,14,22.20
2013,07,16,16,15,22.20
2013,07,16,16,16,22.20
2013,07,16,16,17,22.20
2013,07,16,16,18,22.20
2013,07,16,16,19,22.20
2013,07,16,16,20,22.30
2013,07,16,16,21,22.30
2013,07,16,16,22,22.40
2013,07,16,16,23,22.40
2013,07,16,16,24,22.50
2013,07,16,16,25,22.60
2013,07,16,16,26,22.70
2013,07,16,16,27,22.80
2013,07,16,16,28,22.90
2013,07,16,16,29,22.90
2013,07,16,16,30,23.10
2013,07,16,16,31,23.20
2013,07,16,16,32,23.30
2013,07,16,16,33,23.50
2013,07,16,16,34,23.70
2013,07,16,16,35,23.90
2013,07,16,16,36,24.10
2013,07,16,16,37,24.20
2013,07,16,16,38,24.40
2013,07,16,16,39,24.50
2013,07,16,16,40,24.60
2013,07,16,16,41,24.60
2013,07,16,16,42,24.60
2013,07,16,16,43,24.50
2013,07,16,16,44,24.50
2013,07,16,16,45,24.40
2013,07,16,16,46,24.30
2013,07,16,16,47,24.20
2013,07,16,16,48,24.10
2013,07,16,16,49,24.10
2013,07,16,16,50,24.00
2013,07,16,16,51,23.90
2013,07,16,16,52,23.80
2013,07,16,16,53,23.80
2013,07,16,16,54,23.80
2013,07,16,16,55,23.90
2013,07,16,16,56,24.00
2013,07,16,16,57,24.10
2013,07,16,16,58,24.10
2013,07,16,16,59,24.20
2013,07,16,17,00,24.40
2013,07,16,17,01,24.40
2013,07,16,17,02,24.50
2013,07,16,17,03,24.50
2013,07,16,17,04,24.40
2013,07,16,17,05,24.30
2013,07,16,17,06,24.10
2013,07,16,17,07,23.90
2013,07,16,17,08,23.50
2013,07,16,17,09,23.20
2013,07,16,17,10,23.00
2013,07,16,17,11,22.90
2013,07,16,17,12,22.80
2013,07,16,17,13,22.80
2013,07,16,17,14,22.70
2013,07,16,17,15,22.60
2013,07,16,17,16,22.60
2013,07,16,17,17,22.30
2013,07,16,17,18,22.00
2013,07,16,17,19,21.70